Regional Weather Roundup
Issued by NWS Newport/Morehead, NC

Current Version | Previous Version | Graphics & Text | Print | Product List | Glossary Off
Versions: 1 2 3 4 5 6 7 8 9 10 11 12 13 14 15 16 17 18 19 20 21 22 23 24 25 26 27 28 29 30 31 32 33 34 35 36 37 38 39 40 41 42 43 44 45 46 47 48 49 50

000
ASUS42 KMHX 231810
RWRMHX
WEATHER ROUNDUP FOR EASTERN NORTH CAROLINA
NATIONAL WEATHER SERVICE NEWPORT/MOREHEAD CITY NC
200 PM EDT WED JUL 23 2014

NOTE: "FAIR" INDICATES FEW OR NO CLOUDS BELOW 12,000 FEET
WITH NO SIGNIFICANT WEATHER AND/OR OBSTRUCTIONS TO VISIBILITY

NCZ015>017-031-032-045>047-102-103-231900-
NORTH COAST

CITY           SKY/WX    TMP DP  RH WIND       PRES   REMARKS
EDENTON        SUNNY     86  73  64 W3        29.99F
ELIZABETH CITY PTSUNNY   86  73  65 SW10      29.98F
KITTY HAWK     CLEAR     85  73  67 W6        29.98F
MANTEO         NOT AVBL

$$

NCZ045>047-081-094-103-104-231900-
CENTRAL COAST

CITY           SKY/WX    TMP DP  RH WIND       PRES   REMARKS
FRISCO         MOSUNNY   84  75  74 SW8       30.03F
SWANQUARTER      N/A     86 N/A N/A S8        29.97F

$$

NCZ095-097-098-100-101-231900-
SOUTHERN COAST

CITY           SKY/WX    TMP DP  RH WIND       PRES   REMARKS
BEAUFORT       MOSUNNY   85  75  72 S10       30.03S
CEDAR ISLAND     N/A     84 N/A N/A SE13      30.06S
JACKSONVILLE   CLOUDY    82  75  79 S10       30.01F
NEWPORT        NOT AVBL
PINEY ISLAND   MOCLDY    83  76  79 S10G20    30.02F
WILMINGTON     MOSUNNY   89  74  60 MISG      30.02F


$$

NCZ011>013-027>030-043-044-078>080-089-090>093-098-231900-
COASTAL PLAIN

CITY           SKY/WX    TMP DP  RH WIND       PRES   REMARKS
AHOSKIE        MOSUNNY   86  72  62 S5        29.98F
CLINTON        MOSUNNY   80  76  87 CALM      30.03S
ELIZABETHTOWN  MOSUNNY   88  71  58 S6        30.03F
GOLDSBORO      MOSUNNY   89  77  68 VRB5      29.98F HX 101
GREENVILLE     SUNNY     90  73  58 S3        30.01F
HAVELOCK       TSTM      85  76  74 SE10      30.03F
KENANSVILLE    MOSUNNY   87  72  60 CALM      30.02F
KINSTON        MOSUNNY   90  73  58 W3        30.01F
NEW BERN       MOSUNNY   91  73  55 VRB3      30.01F
RICHLANDS      MOSUNNY   90  72  55 CALM      30.01F
ROANOKE RAPIDS NOT AVBL
ROCKY MOUNT    MOSUNNY   90  74  59 SW8       30.00F
WASHINGTON     SUNNY     86  73  66 SW8       30.01F
WHITEVILLE     SUNNY     87  72  60 CALM      30.03F

$$

AMZ130-135-150-152-154-156-158-170-250-252-270-ANZ085-086-088-633-658-670-231900-
MARINE OBSERVATIONS

STATION/POSITION TIME  TEMP    WIND        PRES    WAVE   SWELL
                       AIR SEA DIR/SP/G            HT/PER HT/PER
                 (UTC) (F)     (DEG/KT/KT) (MB)    (FT/S) (FT/S)
CHESAPEAKE LIGHT NOT AVBL
BUOY 44014       1800   77 79  240/ 10/ 12 1015.3    2/ 8   2/ 8
DUCK             1800   82 75  230/  8/ 10 1014.9
2E DUCK          1800                        N/A     2/ 6
OREGON INLET     1800   81 80  190/ 13/ 14 1016.0
BUOY 44095       1800      79                N/A     3/ 6
20E OREGON INLET 1700          190/  6/  8   N/A
HATTERAS CG      1800   83 82  190/  5/  8 1017.4
DIAMOND BUOY     1800          VRB 10/ 12  1017.0    3/ 7   2/ 7
CAPE LOOKOUT     1700   82     190/ 11/ 14 1017.1
BEAUFORT LAB     1800   81 80  190/ 12/ 13 1016.3
30 SE NEW RIVER  1800   79 81  180/ 10/ 12 1017.6    3/ 8   3/ 8
5 SE WRIGHTSVILL 1700   78 83  150/  8/  8   N/A
BUOY 41002       1726   83 82  230/ 17/ 21 1020.3    4/ 5   2/10
BUOY 41004       1800   80 84  160/  4/  4 1017.9    3/ 7   3/ 7

$$



USA.gov is the U.S. government's official web portal to all federal, state and local government web resources and services.